Time,TemperatureF,DewpointF,PressureIn,WindDirection,WindDirectionDegrees,WindSpeedMPH,WindSpeedGustMPH,Humidity,HourlyPrecipIn,Conditions,Clouds,dailyrainin,SolarRadiationWatts/m^2,SoftwareType,DateUTC
2013-03-10 00:01:00,26.0,25.0,-100.00,SSW,209,0.0,4.0,95,0.00,,,0.03,0.000000,,2013-03-10 09:01:00,
2013-03-10 00:11:00,26.0,25.0,-100.00,SSW,209,0.0,4.0,95,0.00,,,0.03,0.000000,,2013-03-10 09:11:00,
2013-03-10 00:42:00,27.0,27.0,-100.00,SW,233,1.0,4.0,99,0.00,,,0.03,0.000000,,2013-03-10 09:42:00,
2013-03-10 00:51:00,27.0,27.0,-100.00,SW,233,1.0,4.0,99,0.00,,,0.03,0.000000,,2013-03-10 09:51:00,
2013-03-10 01:01:00,27.0,27.0,-100.00,SW,233,1.0,4.0,99,0.00,,,0.03,0.000000,,2013-03-10 10:01:00,
2013-03-10 01:11:00,27.0,27.0,-100.00,SW,233,1.0,4.0,99,0.00,,,0.03,0.000000,,2013-03-10 10:11:00,
2013-03-10 01:42:00,27.0,27.0,-100.00,SW,220,0.0,3.0,100,0.00,,,0.03,0.000000,,2013-03-10 10:42:00,
2013-03-10 01:52:00,27.0,27.0,-100.00,SW,220,0.0,3.0,100,0.00,,,0.03,0.000000,,2013-03-10 10:52:00,
2013-03-10 03:01:00,27.0,27.0,-100.00,SW,220,0.0,3.0,100,0.00,,,0.03,0.000000,,2013-03-10 11:01:00,
2013-03-10 03:11:00,27.0,27.0,-100.00,SW,220,0.0,3.0,100,0.00,,,0.03,0.000000,,2013-03-10 11:11:00,
2013-03-10 05:42:00,22.0,18.0,-100.00,SW,231,0.0,6.0,84,-99.99,,,0.03,0.000000,,2013-03-10 13:42:00,
2013-03-10 05:52:00,22.0,18.0,-100.00,SW,231,0.0,6.0,84,-99.99,,,0.03,0.000000,,2013-03-10 13:52:00,
2013-03-10 06:01:00,22.0,18.0,-100.00,SW,231,0.0,6.0,84,-99.99,,,0.03,0.000000,,2013-03-10 14:01:00,
2013-03-10 06:11:00,22.0,18.0,-100.00,SW,231,0.0,6.0,84,-99.99,,,0.03,0.000000,,2013-03-10 14:11:00,
2013-03-10 06:42:00,15.0,15.0,-100.00,South,188,0.0,0.0,98,0.00,,,0.03,0.000000,,2013-03-10 14:42:00,
2013-03-10 06:52:00,15.0,15.0,-100.00,South,188,0.0,0.0,98,0.00,,,0.03,0.000000,,2013-03-10 14:52:00,
2013-03-10 07:01:00,15.0,15.0,-100.00,South,188,0.0,0.0,98,0.00,,,0.03,0.000000,,2013-03-10 15:01:00,
2013-03-10 07:11:00,15.0,15.0,-100.00,South,188,0.0,0.0,98,0.00,,,0.03,0.000000,,2013-03-10 15:11:00,
2013-03-10 07:42:00,8.0,7.0,-100.00,WNW,303,0.0,0.0,95,0.00,,,0.03,0.000000,,2013-03-10 15:42:00,
2013-03-10 07:52:00,8.0,7.0,-100.00,WNW,303,0.0,0.0,95,0.00,,,0.03,0.000000,,2013-03-10 15:52:00,
2013-03-10 08:01:00,8.0,7.0,-100.00,WNW,303,0.0,0.0,95,0.00,,,0.03,0.000000,,2013-03-10 16:01:00,
2013-03-10 08:11:00,8.0,7.0,-100.00,WNW,303,0.0,0.0,95,0.00,,,0.03,0.000000,,2013-03-10 16:11:00,
2013-03-10 08:42:00,5.0,3.0,-100.00,NNE,22,0.0,0.0,91,0.00,,,0.03,0.000000,,2013-03-10 16:42:00,
2013-03-10 08:52:00,5.0,3.0,-100.00,NNE,22,0.0,0.0,91,0.00,,,0.03,0.000000,,2013-03-10 16:52:00,
2013-03-10 09:01:00,5.0,3.0,-100.00,NNE,22,0.0,0.0,91,0.00,,,0.03,0.000000,,2013-03-10 17:01:00,
2013-03-10 09:11:00,5.0,3.0,-100.00,NNE,22,0.0,0.0,91,0.00,,,0.03,0.000000,,2013-03-10 17:11:00,
2013-03-10 10:42:00,18.0,18.0,-100.00,East,100,0.0,0.0,99,-99.99,,,0.03,42.000000,,2013-03-10 18:42:00,
2013-03-10 10:52:00,18.0,18.0,-100.00,East,100,0.0,0.0,99,-99.99,,,0.03,42.000000,,2013-03-10 18:52:00,
2013-03-10 11:01:00,18.0,18.0,-100.00,East,100,0.0,0.0,99,-99.99,,,0.03,42.000000,,2013-03-10 19:01:00,
2013-03-10 11:11:00,18.0,18.0,-100.00,East,100,0.0,0.0,99,-99.99,,,0.03,42.000000,,2013-03-10 19:11:00,
2013-03-10 11:42:00,19.0,18.0,-100.00,East,101,0.0,4.0,94,0.00,,,0.03,60.000000,,2013-03-10 19:42:00,
2013-03-10 11:53:00,19.0,18.0,-100.00,East,101,0.0,4.0,94,0.00,,,0.03,60.000000,,2013-03-10 19:53:00,
2013-03-10 12:02:00,19.0,18.0,-100.00,East,101,0.0,4.0,94,0.00,,,0.03,60.000000,,2013-03-10 20:02:00,
2013-03-10 12:12:00,19.0,18.0,-100.00,East,101,0.0,4.0,94,0.00,,,0.03,60.000000,,2013-03-10 20:12:00,
2013-03-10 12:32:00,22.0,19.0,-100.00,ENE,76,2.0,4.0,89,0.00,,,0.03,125.000000,,2013-03-10 20:32:00,
2013-03-10 12:43:00,22.0,19.0,-100.00,ENE,76,2.0,4.0,89,0.00,,,0.03,125.000000,,2013-03-10 20:43:00,
2013-03-10 12:53:00,22.0,19.0,-100.00,ENE,76,2.0,4.0,89,0.00,,,0.03,125.000000,,2013-03-10 20:53:00,
2013-03-10 13:02:00,22.0,19.0,-100.00,ENE,76,2.0,4.0,89,0.00,,,0.03,125.000000,,2013-03-10 21:02:00,
2013-03-10 13:12:00,22.0,19.0,-100.00,ENE,76,2.0,4.0,89,0.00,,,0.03,125.000000,,2013-03-10 21:12:00,
2013-03-10 13:33:00,25.0,19.0,-100.00,ESE,102,0.0,4.0,77,0.00,,,-99.99,141.000000,,2013-03-10 21:33:00,
2013-03-10 13:43:00,25.0,19.0,-100.00,ESE,102,0.0,4.0,77,0.00,,,-99.99,141.000000,,2013-03-10 21:43:00,
2013-03-10 13:52:00,25.0,19.0,-100.00,ESE,102,0.0,4.0,77,0.00,,,-99.99,141.000000,,2013-03-10 21:52:00,
2013-03-10 14:02:00,25.0,19.0,-100.00,ESE,102,0.0,4.0,77,0.00,,,-99.99,141.000000,,2013-03-10 22:02:00,
2013-03-10 14:11:00,25.0,19.0,-100.00,ESE,102,0.0,4.0,77,0.00,,,-99.99,141.000000,,2013-03-10 22:11:00,
2013-03-10 14:43:00,29.0,18.0,-100.00,SW,236,2.0,4.0,64,0.00,,,0.03,213.000000,,2013-03-10 22:43:00,
2013-03-10 14:53:00,29.0,18.0,-100.00,SW,236,2.0,4.0,64,0.00,,,0.03,213.000000,,2013-03-10 22:53:00,
2013-03-10 15:02:00,29.0,18.0,-100.00,SW,236,2.0,4.0,64,0.00,,,0.03,213.000000,,2013-03-10 23:02:00,
2013-03-10 15:12:00,29.0,18.0,-100.00,SW,236,2.0,4.0,64,0.00,,,0.03,213.000000,,2013-03-10 23:12:00,
2013-03-10 15:33:00,28.0,14.0,-100.00,SW,234,1.0,5.0,56,0.00,,,0.02,277.000000,,2013-03-10 23:33:00,
2013-03-10 15:43:00,28.0,14.0,-100.00,SW,234,1.0,5.0,56,0.00,,,0.02,277.000000,,2013-03-10 23:43:00,
2013-03-10 15:52:00,28.0,14.0,-100.00,SW,234,1.0,5.0,56,0.00,,,0.02,277.000000,,2013-03-10 23:52:00,
2013-03-10 16:02:00,28.0,14.0,-100.00,SW,234,1.0,5.0,56,0.00,,,0.02,277.000000,,2013-03-11 00:02:00,
2013-03-10 16:12:00,28.0,14.0,-100.00,SW,234,1.0,5.0,56,0.00,,,0.02,277.000000,,2013-03-11 00:12:00,
2013-03-10 16:43:00,28.0,15.0,-100.00,South,189,1.0,4.0,57,0.00,,,0.02,280.000000,,2013-03-11 00:43:00,
2013-03-10 16:53:00,28.0,15.0,-100.00,South,189,1.0,4.0,57,0.00,,,0.02,280.000000,,2013-03-11 00:53:00,
2013-03-10 17:02:00,28.0,15.0,-100.00,South,189,1.0,4.0,57,0.00,,,0.02,280.000000,,2013-03-11 01:02:00,
2013-03-10 17:12:00,28.0,15.0,-100.00,South,189,1.0,4.0,57,0.00,,,0.02,280.000000,,2013-03-11 01:12:00,
2013-03-10 17:43:00,26.0,15.0,-100.00,SSW,210,0.0,4.0,63,0.00,,,0.01,99.000000,,2013-03-11 01:43:00,
2013-03-10 17:53:00,26.0,15.0,-100.00,SSW,210,0.0,4.0,63,0.00,,,0.01,99.000000,,2013-03-11 01:53:00,
2013-03-10 18:02:00,26.0,15.0,-100.00,SSW,210,0.0,4.0,63,0.00,,,0.01,99.000000,,2013-03-11 02:02:00,
2013-03-10 18:12:00,26.0,15.0,-100.00,SSW,210,0.0,4.0,63,0.00,,,0.01,99.000000,,2013-03-11 02:12:00,
2013-03-10 18:42:00,23.0,14.0,-100.00,West,262,0.0,4.0,68,0.00,,,0.00,66.000000,,2013-03-11 02:42:00,
2013-03-10 18:52:00,23.0,14.0,-100.00,West,262,0.0,4.0,68,0.00,,,0.00,66.000000,,2013-03-11 02:52:00,
2013-03-10 19:02:00,23.0,14.0,-100.00,West,262,0.0,4.0,68,0.00,,,0.00,66.000000,,2013-03-11 03:02:00,
2013-03-10 19:11:00,23.0,14.0,-100.00,West,262,0.0,4.0,68,0.00,,,0.00,66.000000,,2013-03-11 03:11:00,
2013-03-10 19:32:00,16.0,12.0,-100.00,SSW,209,0.0,0.0,83,0.00,,,0.00,21.000000,,2013-03-11 03:32:00,
2013-03-10 20:02:00,16.0,12.0,-100.00,SSW,209,0.0,0.0,83,0.00,,,0.00,21.000000,,2013-03-11 04:02:00,
2013-03-10 20:12:00,16.0,12.0,-100.00,SSW,209,0.0,0.0,83,0.00,,,0.00,21.000000,,2013-03-11 04:12:00,
2013-03-10 20:33:00,10.0,8.0,-100.00,ESE,113,0.0,0.0,91,0.00,,,0.00,3.000000,,2013-03-11 04:33:00,
2013-03-10 21:32:00,4.0,3.0,-100.00,SE,124,0.0,0.0,94,-99.99,,,-99.99,0.000000,,2013-03-11 05:32:00,
2013-03-10 22:33:00,1.0,-1.0,-100.00,East,97,0.0,0.0,91,-99.99,,,0.00,0.000000,,2013-03-11 06:33:00,
2013-03-10 23:33:00,-2.0,-5.0,-100.00,SE,139,0.0,0.0,88,-99.99,,,0.00,0.000000,,2013-03-11 07:33:00,